DW4959 Weather Reports


Display with metric or nautical units.
time (UTC)temp
F
wind
direction
speed
MPH
gust
MPH
rain 1hr
in
rain 24hr
in
rain mn
in
humidity
%
barometer
mb
20190424080344 64 78 2.0 8.0 0.00 0.00 0.00 40 1011.9
20190424074621 62 49 2.0 6.0 0.00 0.00 0.00 41 1012.0
20190424073126 61 66 2.0 4.0 0.00 0.00 0.00 43 1012.0
20190424071515 61 56 0.0 0.0 0.00 0.00 0.00 43 1012.0
20190424064740 61 277 1.0 3.0 0.00 0.00 0.00 43 1012.0
20190424063044 61 234 1.0 4.0 0.00 0.00 0.00 43 1011.9
20190424061843 61 234 2.0 4.0 0.00 0.00 0.00 43 1011.9
20190424060054 62 231 0.0 0.0 0.00 0.00 0.00 43 1011.7
20190424053100 63 101 2.0 4.0 0.00 0.00 0.00 42 1011.6
20190424051627 64 101 0.0 0.0 0.00 0.00 0.00 41 1011.3
20190424050201 65 101 0.0 0.0 0.00 0.00 0.00 40 1011.2
20190424044646 66 101 0.0 4.0 0.00 0.00 0.00 38 1011.2
20190424043115 67 92 0.0 3.0 0.00 0.00 0.00 37 1011.3
20190424040034 68 92 2.0 4.0 0.00 0.00 0.00 34 1011.0
20190424034643 69 90 4.0 8.0 0.00 0.00 0.00 33 1011.0
20190424033038 69 126 3.0 11.0 0.00 0.00 0.00 31 1010.8
20190424031711 70 36 6.0 14.0 0.00 0.00 0.00 32 1010.5
20190424030107 69 56 10.0 18.0 0.00 0.00 0.00 32 1010.5
20190424024648 69 53 9.0 19.0 0.00 0.00 0.00 32 1010.3
20190424023111 69 23 9.0 16.0 0.00 0.00 0.00 31 1010.2
20190424021718 70 35 7.0 15.0 0.00 0.00 0.00 30 1010.2
20190424020129 70 36 8.0 14.0 0.00 0.00 0.00 31 1010.2
20190424014639 70 349 10.0 18.0 0.00 0.00 0.00 32 1010.2
20190423200101 81 182 10.0 18.0 0.00 0.00 0.00 15 1008.9
20190423194505 82 159 9.0 14.0 0.00 0.00 0.00 16 1009.1
20190423193128 81 266 2.0 10.0 0.00 0.00 0.00 18 1009.2
20190423191501 82 318 6.0 10.0 0.00 0.00 0.00 18 1009.3
20190423190121 84 119 4.0 9.0 0.00 0.00 0.00 16 1009.6
20190423184505 82 125 5.0 14.0 0.00 0.00 0.00 17 1009.7
20190423183128 82 80 3.0 9.0 0.00 0.00 0.00 17 1010.0
20190423181512 83 146 9.0 13.0 0.00 0.00 0.00 16 1010.0
20190423180047 83 164 6.0 10.0 0.00 0.00 0.00 16 1010.1
20190423174709 82 149 6.0 10.0 0.00 0.00 0.00 19 1010.4
20190423173100 81 146 5.0 10.0 0.00 0.00 0.00 19 1010.4
20190423171613 80 116 6.0 11.0 0.00 0.00 0.00 21 1010.5
20190423170032 78 194 2.0 8.0 0.00 0.00 0.00 22 1010.6
20190423164657 78 178 4.0 10.0 0.00 0.00 0.00 23 1010.6
20190423163127 76 173 5.0 10.0 0.00 0.00 0.00 24 1010.6
20190423161733 74 117 5.0 9.0 0.00 0.00 0.00 27 1010.5
20190423160119 72 171 4.0 10.0 0.00 0.00 0.00 29 1010.6
20190423154536 70 118 4.0 8.0 0.00 0.00 0.00 30 1010.6
20190423153036 69 162 2.0 6.0 0.00 0.00 0.00 31 1010.4
20190423151609 67 169 2.0 6.0 0.00 0.00 0.00 32 1010.5
20190423150044 65 122 2.0 5.0 0.00 0.00 0.00 34 1010.5
20190423144608 64 116 0.0 2.0 0.00 0.00 0.00 35 1010.6
20190423143001 63 114 1.0 3.0 0.00 0.00 0.00 37 1010.5
20190423141707 60 114 0.0 2.0 0.00 0.00 0.00 41 1010.5
20190423140050 59 113 0.0 0.0 0.00 0.00 0.00 42 1010.3
20190423134526 59 113 0.0 0.0 0.00 0.00 0.00 41 1010.2
20190423130053 58 99 3.0 7.0 0.00 0.00 0.00 42 1009.8
20190423124623 57 146 4.0 7.0 0.00 0.00 0.00 43 1009.5
20190423123109 58 239 0.0 0.0 0.00 0.00 0.00 43 1009.3
20190423121652 58 153 0.0 3.0 0.00 0.00 0.00 47 1009.1
20190423120039 57 130 3.0 5.0 0.00 0.00 0.00 47 1009.0
20190423113030 58 154 0.0 0.0 0.00 0.00 0.00 48 1009.1
20190423111646 59 154 0.0 0.0 0.00 0.00 0.00 47 1009.2
20190423110108 59 154 0.0 3.0 0.00 0.00 0.00 47 1009.2
20190423104556 60 294 1.0 4.0 0.00 0.00 0.00 49 1009.2
20190423103136 60 198 0.0 0.0 0.00 0.00 0.00 44 1009.1
20190423101752 61 198 0.0 0.0 0.00 0.00 0.00 43 1009.3
20190423100212 61 198 0.0 0.0 0.00 0.00 0.00 43 1009.2
20190423094616 61 198 0.0 0.0 0.00 0.00 0.00 44 1009.3
20190423090153 62 198 0.0 0.0 0.00 0.00 0.00 44 1009.4
20190423084648 62 199 2.0 4.0 0.00 0.00 0.00 44 1009.3
20190423083102 63 293 0.0 0.0 0.00 0.00 0.00 44 1009.4